Time,TemperatureF,DewpointF,PressureIn,WindDirection,WindDirectionDegrees,WindSpeedMPH,WindSpeedGustMPH,Humidity,HourlyPrecipIn,Conditions,Clouds,dailyrainin,SoftwareType,DateUTC
2013-03-28 00:00:00,35.6,24.3,30.21,NW,315,0.0,0.0,63,0.00,RMK 68.7/38.0,,0.00,WUHU21623XXSP,2013-03-28 04:00:00,
2013-03-28 00:05:00,35.6,24.3,30.20,North,0,5.4,5.4,63,0.00,RMK 68.7/38.0,,0.00,WUHU21623XXSP,2013-03-28 04:05:00,
2013-03-28 00:10:00,35.5,24.2,30.21,NNW,337,0.0,5.4,63,0.00,RMK 68.5/38.0,,0.00,WUHU21623XXSP,2013-03-28 04:10:00,
2013-03-28 00:15:00,35.3,24.0,30.21,NNW,337,0.0,9.4,63,0.00,RMK 68.4/37.0,,0.00,WUHU21623XXSP,2013-03-28 04:15:00,
2013-03-28 00:20:00,35.3,24.0,30.21,NW,315,0.0,9.4,63,0.00,RMK 68.4/37.0,,0.00,WUHU21623XXSP,2013-03-28 04:20:00,
2013-03-28 00:25:00,35.1,24.2,30.21,NW,315,3.4,3.4,64,0.00,RMK 68.4/37.0,,0.00,WUHU21623XXSP,2013-03-28 04:25:00,
2013-03-28 00:30:00,34.9,24.0,30.21,NNW,337,9.8,9.8,64,0.00,RMK 68.4/37.0,,0.00,WUHU21623XXSP,2013-03-28 04:30:00,
2013-03-28 00:35:00,34.7,23.8,30.21,WNW,292,0.0,9.8,64,0.00,RMK 68.2/37.0,,0.00,WUHU21623XXSP,2013-03-28 04:35:00,
2013-03-28 00:40:00,34.7,23.8,30.21,North,0,10.5,10.5,64,0.00,RMK 68.2/37.0,,0.00,WUHU21623XXSP,2013-03-28 04:40:00,
2013-03-28 00:45:00,34.6,23.7,30.21,North,0,3.1,10.5,64,0.00,RMK 68.2/37.0,,0.00,WUHU21623XXSP,2013-03-28 04:45:00,
2013-03-28 00:50:00,34.4,23.5,30.21,North,0,6.0,10.5,64,0.00,RMK 68.2/37.0,,0.00,WUHU21623XXSP,2013-03-28 04:50:00,
2013-03-28 00:55:00,34.4,23.5,30.21,North,0,0.0,7.6,64,0.00,RMK 68.0/37.0,,0.00,WUHU21623XXSP,2013-03-28 04:55:00,
2013-03-28 01:00:00,34.2,23.4,30.21,NNW,337,6.3,6.3,64,0.00,RMK 68.0/37.0,,0.00,WUHU21623XXSP,2013-03-28 05:00:00,
2013-03-28 01:05:00,34.0,23.5,30.21,North,0,0.0,6.3,65,0.00,RMK 68.0/37.0,,0.00,WUHU21623XXSP,2013-03-28 05:05:00,
2013-03-28 01:10:00,33.8,23.3,30.21,NNW,337,0.0,6.3,65,0.00,RMK 68.0/37.0,,0.00,WUHU21623XXSP,2013-03-28 05:10:00,
2013-03-28 01:15:00,33.8,23.3,30.21,North,0,0.0,8.7,65,0.00,RMK 68.0/37.0,,0.00,WUHU21623XXSP,2013-03-28 05:15:00,
2013-03-28 01:20:00,33.8,23.3,30.21,North,0,0.0,8.7,65,0.00,RMK 67.8/37.0,,0.00,WUHU21623XXSP,2013-03-28 05:20:00,
2013-03-28 01:25:00,33.7,23.3,30.21,NNW,337,6.0,6.0,65,0.00,RMK 67.8/37.0,,0.00,WUHU21623XXSP,2013-03-28 05:25:00,
2013-03-28 01:30:00,33.7,23.3,30.21,North,0,1.6,6.0,65,0.00,RMK 67.8/37.0,,0.00,WUHU21623XXSP,2013-03-28 05:30:00,
2013-03-28 01:35:00,33.7,23.6,30.21,WNW,292,0.0,4.0,66,0.00,RMK 67.8/37.0,,0.00,WUHU21623XXSP,2013-03-28 05:35:00,
2013-03-28 01:40:00,33.5,23.4,30.21,NW,315,0.0,0.0,66,0.00,RMK 67.8/37.0,,0.00,WUHU21623XXSP,2013-03-28 05:40:00,
2013-03-28 01:45:00,33.1,23.0,30.21,NNW,337,0.0,0.0,66,0.00,RMK 67.8/37.0,,0.00,WUHU21623XXSP,2013-03-28 05:45:00,
2013-03-28 01:50:00,33.1,23.0,30.21,WNW,292,0.0,0.0,66,0.00,RMK 67.6/37.0,,0.00,WUHU21623XXSP,2013-03-28 05:50:00,
2013-03-28 01:55:00,32.9,22.9,30.21,NNW,337,0.0,0.0,66,0.00,RMK 67.6/37.0,,0.00,WUHU21623XXSP,2013-03-28 05:55:00,
2013-03-28 02:00:00,32.9,22.9,30.21,North,0,0.0,0.0,66,0.00,RMK 67.6/37.0,,0.00,WUHU21623XXSP,2013-03-28 06:00:00,
2013-03-28 02:05:00,32.8,22.8,30.21,NNW,337,0.0,4.0,66,0.00,RMK 67.6/36.0,,0.00,WUHU21623XXSP,2013-03-28 06:05:00,
2013-03-28 02:10:00,32.8,23.1,30.21,North,0,0.0,4.0,67,0.00,RMK 67.6/36.0,,0.00,WUHU21623XXSP,2013-03-28 06:10:00,
2013-03-28 02:15:00,32.6,22.9,30.21,NW,315,0.0,0.0,67,0.00,RMK 67.5/36.0,,0.00,WUHU21623XXSP,2013-03-28 06:15:00,
2013-03-28 02:20:00,32.4,22.7,30.21,NNW,337,0.0,0.0,67,0.00,RMK 67.5/36.0,,0.00,WUHU21623XXSP,2013-03-28 06:20:00,
2013-03-28 02:25:00,32.4,22.7,30.21,NE,45,5.4,5.4,67,0.00,RMK 67.5/36.0,,0.00,WUHU21623XXSP,2013-03-28 06:25:00,
2013-03-28 02:30:00,32.4,22.7,30.21,NW,315,0.0,5.4,67,0.00,RMK 67.3/36.0,,0.00,WUHU21623XXSP,2013-03-28 06:30:00,
2013-03-28 02:35:00,32.4,23.1,30.21,NW,315,0.0,0.0,68,0.00,RMK 67.3/36.0,,0.00,WUHU21623XXSP,2013-03-28 06:35:00,
2013-03-28 02:40:00,32.4,23.1,30.21,NNW,337,0.0,0.0,68,0.00,RMK 67.3/36.0,,0.00,WUHU21623XXSP,2013-03-28 06:40:00,
2013-03-28 02:45:00,32.4,23.1,30.21,West,270,0.0,0.0,68,0.00,RMK 67.3/36.0,,0.00,WUHU21623XXSP,2013-03-28 06:45:00,
2013-03-28 02:50:00,32.4,23.1,30.21,NW,315,0.0,0.0,68,0.00,RMK 67.3/36.0,,0.00,WUHU21623XXSP,2013-03-28 06:50:00,
2013-03-28 02:55:00,32.6,23.3,30.21,North,0,0.0,0.0,68,0.00,RMK 67.3/36.0,,0.00,WUHU21623XXSP,2013-03-28 06:55:00,
2013-03-28 03:00:00,32.4,23.1,30.21,NNW,337,0.0,0.0,68,0.00,RMK 67.3/36.0,,0.00,WUHU21623XXSP,2013-03-28 07:00:00,
2013-03-28 03:05:00,32.4,23.1,30.21,NW,315,4.5,4.5,68,0.00,RMK 67.3/36.0,,0.00,WUHU21623XXSP,2013-03-28 07:05:00,
2013-03-28 03:10:00,32.4,23.1,30.21,NNW,337,0.0,4.5,68,0.00,RMK 67.3/36.0,,0.00,WUHU21623XXSP,2013-03-28 07:10:00,
2013-03-28 03:15:00,32.2,22.9,30.21,WNW,292,0.0,0.0,68,0.00,RMK 67.3/36.0,,0.00,WUHU21623XXSP,2013-03-28 07:15:00,
2013-03-28 03:20:00,32.2,22.9,30.21,WNW,292,0.0,0.0,68,0.00,RMK 67.3/36.0,,0.00,WUHU21623XXSP,2013-03-28 07:20:00,
2013-03-28 03:25:00,32.2,22.9,30.21,NW,315,0.0,0.0,68,0.00,RMK 67.1/36.0,,0.00,WUHU21623XXSP,2013-03-28 07:25:00,
2013-03-28 03:30:00,32.0,22.7,30.21,NNW,337,0.0,2.0,68,0.00,RMK 67.1/36.0,,0.00,WUHU21623XXSP,2013-03-28 07:30:00,
2013-03-28 03:35:00,31.9,22.6,30.21,WNW,292,0.0,2.0,68,0.00,RMK 67.1/36.0,,0.00,WUHU21623XXSP,2013-03-28 07:35:00,
2013-03-28 03:40:00,31.7,22.4,30.21,NNW,337,0.0,0.0,68,0.00,RMK 67.1/36.0,,0.00,WUHU21623XXSP,2013-03-28 07:40:00,
2013-03-28 03:45:00,31.7,22.4,30.21,WNW,292,0.0,0.0,68,0.00,RMK 67.1/36.0,,0.00,WUHU21623XXSP,2013-03-28 07:45:00,
2013-03-28 03:50:00,31.7,22.8,30.21,NNW,337,0.0,0.0,69,0.00,RMK 66.9/36.0,,0.00,WUHU21623XXSP,2013-03-28 07:50:00,
2013-03-28 03:55:00,31.3,22.4,30.21,NW,315,0.0,0.0,69,0.00,RMK 66.9/36.0,,0.00,WUHU21623XXSP,2013-03-28 07:55:00,
2013-03-28 04:00:00,31.3,22.4,30.21,NW,315,0.0,0.0,69,0.00,RMK 66.9/36.0,,0.00,WUHU21623XXSP,2013-03-28 08:00:00,
2013-03-28 04:05:00,31.1,22.2,30.21,NW,315,0.0,0.0,69,0.00,RMK 66.9/36.0,,0.00,WUHU21623XXSP,2013-03-28 08:05:00,
2013-03-28 04:10:00,31.1,22.2,30.21,NNW,337,0.0,0.0,69,0.00,RMK 66.9/36.0,,0.00,WUHU21623XXSP,2013-03-28 08:10:00,
2013-03-28 04:15:00,31.0,22.1,30.21,NNW,337,0.0,0.0,69,0.00,RMK 66.7/36.0,,0.00,WUHU21623XXSP,2013-03-28 08:15:00,
2013-03-28 04:20:00,30.8,22.2,30.21,NNW,337,0.0,0.0,70,0.00,RMK 66.9/36.0,,0.00,WUHU21623XXSP,2013-03-28 08:20:00,
2013-03-28 04:25:00,30.8,22.2,30.21,WNW,292,0.0,0.0,70,0.00,RMK 66.9/36.0,,0.00,WUHU21623XXSP,2013-03-28 08:25:00,
2013-03-28 04:30:00,30.8,22.2,30.21,WNW,292,0.0,0.0,70,0.00,RMK 67.1/36.0,,0.00,WUHU21623XXSP,2013-03-28 08:30:00,
2013-03-28 04:35:00,30.6,22.0,30.21,NNW,337,0.0,0.0,70,0.00,RMK 67.3/36.0,,0.00,WUHU21623XXSP,2013-03-28 08:35:00,
2013-03-28 04:40:00,30.4,22.2,30.21,WNW,292,0.0,0.0,71,0.00,RMK 67.3/36.0,,0.00,WUHU21623XXSP,2013-03-28 08:40:00,
2013-03-28 04:45:00,30.2,22.0,30.21,North,0,0.0,0.0,71,0.00,RMK 67.5/36.0,,0.00,WUHU21623XXSP,2013-03-28 08:45:00,
2013-03-28 04:50:00,30.2,22.0,30.21,WNW,292,0.0,0.0,71,0.00,RMK 67.5/36.0,,0.00,WUHU21623XXSP,2013-03-28 08:50:00,
2013-03-28 04:55:00,30.2,22.0,30.21,NW,315,0.0,0.0,71,0.00,RMK 67.6/36.0,,0.00,WUHU21623XXSP,2013-03-28 08:55:00,
2013-03-28 05:00:00,30.1,21.9,30.21,North,0,0.0,0.0,71,0.00,RMK 67.6/36.0,,0.00,WUHU21623XXSP,2013-03-28 09:00:00,
2013-03-28 05:05:00,30.1,22.2,30.21,NW,315,0.0,0.0,72,0.00,RMK 67.8/36.0,,0.00,WUHU21623XXSP,2013-03-28 09:05:00,
2013-03-28 05:10:00,30.1,22.2,30.21,NW,315,0.0,0.0,72,0.00,RMK 67.8/36.0,,0.00,WUHU21623XXSP,2013-03-28 09:10:00,
2013-03-28 05:15:00,30.2,22.3,30.21,NW,315,0.0,0.0,72,0.00,RMK 68.0/36.0,,0.00,WUHU21623XXSP,2013-03-28 09:15:00,
2013-03-28 05:20:00,30.1,22.5,30.21,NW,315,0.0,0.0,73,0.00,RMK 68.0/36.0,,0.00,WUHU21623XXSP,2013-03-28 09:20:00,
2013-03-28 05:25:00,30.1,22.5,30.21,NW,315,0.0,0.0,73,0.00,RMK 68.0/36.0,,0.00,WUHU21623XXSP,2013-03-28 09:25:00,
2013-03-28 05:30:00,30.1,22.5,30.21,WNW,292,0.0,0.0,73,0.00,RMK 68.0/36.0,,0.00,WUHU21623XXSP,2013-03-28 09:30:00,
2013-03-28 05:35:00,29.9,22.3,30.21,WNW,292,0.0,0.0,73,0.00,RMK 68.0/36.0,,0.00,WUHU21623XXSP,2013-03-28 09:35:00,
2013-03-28 05:40:00,29.9,22.7,30.21,NE,45,0.0,0.0,74,0.00,RMK 68.0/36.0,,0.00,WUHU21623XXSP,2013-03-28 09:40:00,
2013-03-28 05:45:00,29.9,22.7,30.21,North,0,0.0,0.0,74,0.00,RMK 68.2/36.0,,0.00,WUHU21623XXSP,2013-03-28 09:45:00,
2013-03-28 05:50:00,29.9,22.7,30.21,North,0,0.0,0.0,74,0.00,RMK 68.2/36.0,,0.00,WUHU21623XXSP,2013-03-28 09:50:00,
2013-03-28 05:55:00,29.9,22.7,30.21,NW,315,0.0,0.0,74,0.00,RMK 68.2/36.0,,0.00,WUHU21623XXSP,2013-03-28 09:55:00,
2013-03-28 06:00:00,29.7,22.8,30.21,NW,315,0.0,0.0,75,0.00,RMK 68.2/36.0,,0.00,WUHU21623XXSP,2013-03-28 10:00:00,
2013-03-28 06:05:00,29.5,22.6,30.21,NNW,337,0.0,0.0,75,0.00,RMK 68.2/36.0,,0.00,WUHU21623XXSP,2013-03-28 10:05:00,
2013-03-28 06:10:00,29.5,22.6,30.21,NNW,337,0.0,0.0,75,0.00,RMK 68.2/36.0,,0.00,WUHU21623XXSP,2013-03-28 10:10:00,
2013-03-28 06:15:00,29.5,22.6,30.21,NW,315,0.0,5.1,75,0.00,RMK 68.2/36.0,,0.00,WUHU21623XXSP,2013-03-28 10:15:00,
2013-03-28 06:20:00,29.5,22.6,30.21,NW,315,0.0,5.1,75,0.00,RMK 68.2/36.0,,0.00,WUHU21623XXSP,2013-03-28 10:20:00,
2013-03-28 06:25:00,29.5,22.9,30.21,North,0,0.0,0.0,76,0.00,RMK 68.2/36.0,,0.00,WUHU21623XXSP,2013-03-28 10:25:00,
2013-03-28 06:30:00,29.5,22.9,30.21,NW,315,0.0,0.0,76,0.00,RMK 68.0/36.0,,0.00,WUHU21623XXSP,2013-03-28 10:30:00,
2013-03-28 06:35:00,29.5,22.9,30.21,NW,315,0.0,0.0,76,0.00,RMK 68.0/36.0,,0.00,WUHU21623XXSP,2013-03-28 10:35:00,
2013-03-28 06:40:00,29.5,22.9,30.21,North,0,0.0,0.0,76,0.00,RMK 67.8/36.0,,0.00,WUHU21623XXSP,2013-03-28 10:40:00,
2013-03-28 06:45:00,29.5,23.2,30.22,NW,315,0.0,0.0,77,0.00,RMK 67.6/36.0,,0.00,WUHU21623XXSP,2013-03-28 10:45:00,
2013-03-28 06:50:00,29.5,23.2,30.22,NW,315,0.0,0.0,77,0.00,RMK 67.6/36.0,,0.00,WUHU21623XXSP,2013-03-28 10:50:00,
2013-03-28 06:55:00,29.5,23.2,30.22,NNW,337,0.0,0.0,77,0.00,RMK 67.6/35.0,,0.00,WUHU21623XXSP,2013-03-28 10:55:00,
2013-03-28 07:00:00,29.5,23.2,30.22,NNW,337,0.0,0.0,77,0.00,RMK 67.5/35.0,,0.00,WUHU21623XXSP,2013-03-28 11:00:00,
2013-03-28 07:05:00,29.5,23.2,30.23,NNW,337,0.0,0.0,77,0.00,RMK 67.3/35.0,,0.00,WUHU21623XXSP,2013-03-28 11:05:00,
2013-03-28 07:10:00,29.5,23.2,30.23,NNE,22,0.0,0.0,77,0.00,RMK 67.3/35.0,,0.00,WUHU21623XXSP,2013-03-28 11:10:00,
2013-03-28 07:15:00,29.3,23.3,30.22,North,0,0.0,0.0,78,0.00,RMK 67.1/35.0,,0.00,WUHU21623XXSP,2013-03-28 11:15:00,
2013-03-28 07:20:00,29.3,23.3,30.23,North,0,0.0,0.0,78,0.00,RMK 67.1/35.0,,0.00,WUHU21623XXSP,2013-03-28 11:20:00,
2013-03-28 07:25:00,29.3,23.3,30.23,North,0,0.0,0.0,78,0.00,RMK 66.9/35.0,,0.00,WUHU21623XXSP,2013-03-28 11:25:00,
2013-03-28 07:30:00,29.2,23.2,30.23,North,0,0.0,0.0,78,0.00,RMK 66.9/36.0,,0.00,WUHU21623XXSP,2013-03-28 11:30:00,
2013-03-28 07:35:00,29.3,23.3,30.23,North,0,0.0,0.0,78,0.00,RMK 66.9/36.0,,0.00,WUHU21623XXSP,2013-03-28 11:35:00,
2013-03-28 07:40:00,29.3,23.3,30.23,NW,315,0.0,0.0,78,0.00,RMK 66.7/36.0,,0.00,WUHU21623XXSP,2013-03-28 11:40:00,
2013-03-28 07:45:00,29.3,23.3,30.23,NW,315,0.0,0.0,78,0.00,RMK 66.7/36.0,,0.00,WUHU21623XXSP,2013-03-28 11:45:00,
2013-03-28 07:50:00,29.3,23.3,30.23,NW,315,0.0,0.0,78,0.00,RMK 66.7/36.0,,0.00,WUHU21623XXSP,2013-03-28 11:50:00,
2013-03-28 07:55:00,29.3,23.3,30.24,NW,315,0.0,0.0,78,0.00,RMK 67.1/36.0,,0.00,WUHU21623XXSP,2013-03-28 11:55:00,
2013-03-28 08:00:00,29.3,23.6,30.23,NNW,337,0.0,0.0,79,0.00,RMK 67.3/37.0,,0.00,WUHU21623XXSP,2013-03-28 12:00:00,
2013-03-28 08:05:00,29.3,23.6,30.24,WNW,292,0.0,0.0,79,0.00,RMK 67.8/36.0,,0.00,WUHU21623XXSP,2013-03-28 12:05:00,
2013-03-28 08:10:00,29.3,23.6,30.23,North,0,0.0,0.0,79,0.00,RMK 68.5/36.0,,0.00,WUHU21623XXSP,2013-03-28 12:10:00,
2013-03-28 08:15:00,29.3,23.6,30.24,North,0,0.0,0.0,79,0.00,RMK 68.9/36.0,,0.00,WUHU21623XXSP,2013-03-28 12:15:00,
2013-03-28 08:20:00,29.3,23.6,30.24,North,0,0.0,0.0,79,0.00,RMK 69.3/36.0,,0.00,WUHU21623XXSP,2013-03-28 12:20:00,
2013-03-28 08:25:00,29.5,23.8,30.24,NNW,337,0.0,0.0,79,0.00,RMK 69.4/35.0,,0.00,WUHU21623XXSP,2013-03-28 12:25:00,
2013-03-28 08:30:00,29.9,24.2,30.24,NW,315,0.0,0.0,79,0.00,RMK 69.4/35.0,,0.00,WUHU21623XXSP,2013-03-28 12:30:00,
2013-03-28 08:35:00,30.2,24.5,30.24,North,0,0.0,0.0,79,0.00,RMK 69.4/35.0,,0.00,WUHU21623XXSP,2013-03-28 12:35:00,
2013-03-28 08:40:00,30.6,25.2,30.24,NNW,337,0.0,0.0,80,0.00,RMK 69.4/35.0,,0.00,WUHU21623XXSP,2013-03-28 12:40:00,
2013-03-28 08:45:00,31.1,25.4,30.24,NNW,337,0.0,0.0,79,0.00,RMK 69.6/35.0,,0.00,WUHU21623XXSP,2013-03-28 12:45:00,
2013-03-28 08:50:00,31.7,25.9,30.24,NNW,337,4.9,6.5,79,0.00,RMK 69.4/35.0,,0.00,WUHU21623XXSP,2013-03-28 12:50:00,
2013-03-28 08:55:00,32.4,26.6,30.25,North,0,0.0,6.5,79,0.00,RMK 69.4/35.0,,0.00,WUHU21623XXSP,2013-03-28 12:55:00,
2013-03-28 09:00:00,32.9,26.8,30.24,NNW,337,0.0,3.8,78,0.00,RMK 69.4/35.0,,0.00,WUHU21623XXSP,2013-03-28 13:00:00,
2013-03-28 09:05:00,33.7,27.3,30.25,NNW,337,0.0,0.0,77,0.00,RMK 69.6/35.0,,0.00,WUHU21623XXSP,2013-03-28 13:05:00,
2013-03-28 09:10:00,34.4,27.7,30.24,NW,315,6.5,6.5,76,0.00,RMK 69.6/35.0,,0.00,WUHU21623XXSP,2013-03-28 13:10:00,
2013-03-28 09:15:00,35.3,28.2,30.24,WNW,292,0.0,6.5,75,0.00,RMK 69.6/35.0,,0.00,WUHU21623XXSP,2013-03-28 13:15:00,
2013-03-28 09:20:00,35.8,28.4,30.24,NNW,337,4.9,4.9,74,0.00,RMK 69.6/35.0,,0.00,WUHU21623XXSP,2013-03-28 13:20:00,
2013-03-28 09:25:00,36.2,28.1,30.24,NW,315,4.0,4.9,72,0.00,RMK 69.4/35.0,,0.00,WUHU21623XXSP,2013-03-28 13:25:00,
2013-03-28 09:30:00,36.5,28.1,30.25,NNW,337,4.9,4.9,71,0.00,RMK 69.4/35.0,,0.00,WUHU21623XXSP,2013-03-28 13:30:00,
2013-03-28 09:35:00,36.2,27.4,30.25,NNW,337,4.0,4.9,70,0.00,RMK 69.4/35.0,,0.00,WUHU21623XXSP,2013-03-28 13:35:00,
2013-03-28 09:40:00,35.6,26.8,30.25,NNW,337,0.0,4.0,70,0.00,RMK 69.4/35.0,,0.00,WUHU21623XXSP,2013-03-28 13:40:00,
2013-03-28 09:45:00,35.3,26.6,30.26,NW,315,0.0,0.0,70,0.00,RMK 69.4/35.0,,0.00,WUHU21623XXSP,2013-03-28 13:45:00,
2013-03-28 09:50:00,35.8,27.4,30.25,North,0,0.0,0.0,71,0.00,RMK 69.4/35.0,,0.00,WUHU21623XXSP,2013-03-28 13:50:00,
2013-03-28 09:55:00,36.7,27.9,30.25,North,0,0.0,6.0,70,0.00,RMK 69.3/35.0,,0.00,WUHU21623XXSP,2013-03-28 13:55:00,
2013-03-28 10:00:00,38.0,28.8,30.26,NNW,337,5.8,6.0,69,0.00,RMK 69.3/35.0,,0.00,WUHU21623XXSP,2013-03-28 14:00:00,
2013-03-28 10:05:00,38.5,28.9,30.26,NW,315,0.0,5.8,68,0.00,RMK 69.3/35.0,,0.00,WUHU21623XXSP,2013-03-28 14:05:00,
2013-03-28 10:10:00,39.1,29.1,30.25,NNW,337,0.0,3.4,67,0.00,RMK 69.3/35.0,,0.00,WUHU21623XXSP,2013-03-28 14:10:00,
2013-03-28 10:15:00,39.8,29.1,30.26,NNW,337,4.7,4.7,65,0.00,RMK 69.1/35.0,,0.00,WUHU21623XXSP,2013-03-28 14:15:00,
2013-03-28 10:20:00,40.1,29.4,30.26,NNW,337,0.0,6.5,65,0.00,RMK 69.1/35.0,,0.00,WUHU21623XXSP,2013-03-28 14:20:00,
2013-03-28 10:25:00,40.7,29.5,30.26,North,0,3.8,6.5,64,0.00,RMK 69.1/35.0,,0.00,WUHU21623XXSP,2013-03-28 14:25:00,
2013-03-28 10:30:00,41.0,29.4,30.25,North,0,0.0,4.7,63,0.00,RMK 69.1/35.0,,0.00,WUHU21623XXSP,2013-03-28 14:30:00,
2013-03-28 10:35:00,41.2,29.2,30.25,North,0,0.0,4.7,62,0.00,RMK 69.1/35.0,,0.00,WUHU21623XXSP,2013-03-28 14:35:00,
2013-03-28 10:40:00,41.4,29.4,30.26,NNW,337,6.0,6.0,62,0.00,RMK 68.9/35.0,,0.00,WUHU21623XXSP,2013-03-28 14:40:00,
2013-03-28 10:45:00,41.4,29.0,30.26,WNW,292,4.0,6.0,61,0.00,RMK 68.9/35.0,,0.00,WUHU21623XXSP,2013-03-28 14:45:00,
2013-03-28 10:50:00,41.6,29.2,30.25,NNE,22,6.3,6.3,61,0.00,RMK 68.9/35.0,,0.00,WUHU21623XXSP,2013-03-28 14:50:00,
2013-03-28 10:55:00,41.6,28.8,30.26,North,0,11.2,11.2,60,0.00,RMK 68.7/35.0,,0.00,WUHU21623XXSP,2013-03-28 14:55:00,
2013-03-28 11:00:00,41.6,28.8,30.26,North,0,0.0,11.2,60,0.00,RMK 68.7/35.0,,0.00,WUHU21623XXSP,2013-03-28 15:00:00,
2013-03-28 11:05:00,42.1,29.3,30.26,NNW,337,3.6,3.6,60,0.00,RMK 68.7/35.0,,0.00,WUHU21623XXSP,2013-03-28 15:05:00,
2013-03-28 11:10:00,42.1,28.9,30.25,NE,45,5.8,5.8,59,0.00,RMK 68.7/35.0,,0.00,WUHU21623XXSP,2013-03-28 15:10:00,
2013-03-28 11:15:00,42.3,29.0,30.26,NW,315,0.0,5.8,59,0.00,RMK 68.7/35.0,,0.00,WUHU21623XXSP,2013-03-28 15:15:00,
2013-03-28 11:20:00,42.5,29.2,30.26,NW,315,0.0,5.8,59,0.00,RMK 68.7/35.0,,0.00,WUHU21623XXSP,2013-03-28 15:20:00,
2013-03-28 11:25:00,42.7,29.0,30.26,NNW,337,11.6,11.6,58,0.00,RMK 68.5/35.0,,0.00,WUHU21623XXSP,2013-03-28 15:25:00,
2013-03-28 11:30:00,42.5,28.4,30.26,NNW,337,6.3,11.6,57,0.00,RMK 68.5/35.0,,0.00,WUHU21623XXSP,2013-03-28 15:30:00,
2013-03-28 11:35:00,42.5,27.9,30.26,NNW,337,12.5,16.8,56,0.00,RMK 68.5/35.0,,0.00,WUHU21623XXSP,2013-03-28 15:35:00,
2013-03-28 11:40:00,42.5,27.9,30.26,North,0,8.5,16.8,56,0.00,RMK 68.5/35.0,,0.00,WUHU21623XXSP,2013-03-28 15:40:00,
2013-03-28 11:45:00,42.5,27.9,30.26,NW,315,7.4,10.3,56,0.00,RMK 68.4/35.0,,0.00,WUHU21623XXSP,2013-03-28 15:45:00,
2013-03-28 11:50:00,42.8,28.2,30.26,NNW,337,7.4,7.4,56,0.00,RMK 68.4/35.0,,0.00,WUHU21623XXSP,2013-03-28 15:50:00,
2013-03-28 11:55:00,43.6,28.5,30.26,North,0,6.0,7.4,55,0.00,RMK 68.4/35.0,,0.00,WUHU21623XXSP,2013-03-28 15:55:00,
2013-03-28 12:00:00,43.7,28.6,30.26,North,0,10.3,10.3,55,0.00,RMK 68.4/35.0,,0.00,WUHU21623XXSP,2013-03-28 16:00:00,
2013-03-28 12:05:00,43.9,28.3,30.26,NW,315,1.8,10.3,54,0.00,RMK 68.4/35.0,,0.00,WUHU21623XXSP,2013-03-28 16:05:00,
2013-03-28 12:10:00,44.1,28.5,30.26,NNW,337,5.8,10.5,54,0.00,RMK 68.4/35.0,,0.00,WUHU21623XXSP,2013-03-28 16:10:00,
2013-03-28 12:15:00,44.5,28.9,30.26,North,0,6.5,10.5,54,0.00,RMK 68.4/35.0,,0.00,WUHU21623XXSP,2013-03-28 16:15:00,
2013-03-28 12:20:00,44.6,29.0,30.26,NNW,337,5.6,6.5,54,0.00,RMK 68.2/35.0,,0.00,WUHU21623XXSP,2013-03-28 16:20:00,
2013-03-28 12:25:00,45.2,29.1,30.26,NW,315,0.0,6.0,53,0.00,RMK 68.2/35.0,,0.00,WUHU21623XXSP,2013-03-28 16:25:00,
2013-03-28 12:30:00,45.7,29.5,30.26,NW,315,10.5,10.5,53,0.00,RMK 68.2/35.0,,0.00,WUHU21623XXSP,2013-03-28 16:30:00,
2013-03-28 12:35:00,46.1,29.4,30.26,NW,315,0.0,10.5,52,0.00,RMK 68.2/35.0,,0.00,WUHU21623XXSP,2013-03-28 16:35:00,
2013-03-28 12:40:00,46.6,29.4,30.26,NNE,22,5.1,11.6,51,0.00,RMK 68.2/35.0,,0.00,WUHU21623XXSP,2013-03-28 16:40:00,
2013-03-28 12:45:00,46.8,29.6,30.26,NNW,337,0.2,11.6,51,0.00,RMK 68.2/35.0,,0.00,WUHU21623XXSP,2013-03-28 16:45:00,
2013-03-28 12:50:00,47.3,29.6,30.26,NW,315,0.0,13.2,50,0.00,RMK 68.2/35.0,,0.00,WUHU21623XXSP,2013-03-28 16:50:00,
2013-03-28 12:55:00,47.3,28.5,30.25,NW,315,7.4,13.4,48,0.00,RMK 68.2/35.0,,0.00,WUHU21623XXSP,2013-03-28 16:55:00,
2013-03-28 13:00:00,47.3,28.5,30.25,NNE,22,0.0,13.4,48,0.00,RMK 68.2/35.0,,0.00,WUHU21623XXSP,2013-03-28 17:00:00,
2013-03-28 13:05:00,47.7,28.9,30.25,North,0,6.9,6.9,48,0.00,RMK 68.2/35.0,,0.00,WUHU21623XXSP,2013-03-28 17:05:00,
2013-03-28 13:10:00,48.1,29.3,30.25,NNE,22,11.2,11.2,48,0.00,RMK 68.2/35.0,,0.00,WUHU21623XXSP,2013-03-28 17:10:00,
2013-03-28 13:15:00,48.1,28.7,30.25,North,0,8.9,11.2,47,0.00,RMK 68.2/35.0,,0.00,WUHU21623XXSP,2013-03-28 17:15:00,
2013-03-28 13:20:00,48.2,28.3,30.25,WNW,292,0.0,9.2,46,0.00,RMK 68.2/35.0,,0.00,WUHU21623XXSP,2013-03-28 17:20:00,
2013-03-28 13:25:00,48.8,28.8,30.25,NNE,22,8.1,9.2,46,0.00,RMK 68.2/35.0,,0.00,WUHU21623XXSP,2013-03-28 17:25:00,
2013-03-28 13:30:00,48.8,28.3,30.25,NNW,337,3.1,8.1,45,0.00,RMK 68.2/35.0,,0.00,WUHU21623XXSP,2013-03-28 17:30:00,
2013-03-28 13:35:00,49.3,29.3,30.25,North,0,2.0,7.4,46,0.00,RMK 68.2/35.0,,0.00,WUHU21623XXSP,2013-03-28 17:35:00,
2013-03-28 13:40:00,49.1,28.6,30.25,West,270,0.0,6.3,45,0.00,RMK 68.2/35.0,,0.00,WUHU21623XXSP,2013-03-28 17:40:00,
2013-03-28 13:45:00,49.0,27.9,30.25,NNE,22,5.4,6.3,44,0.00,RMK 68.2/35.0,,0.00,WUHU21623XXSP,2013-03-28 17:45:00,
2013-03-28 13:50:00,49.1,28.0,30.25,North,0,8.9,8.9,44,0.00,RMK 68.2/35.0,,0.00,WUHU21623XXSP,2013-03-28 17:50:00,
2013-03-28 13:55:00,49.7,28.5,30.24,North,0,7.8,8.9,44,0.00,RMK 68.2/35.0,,0.00,WUHU21623XXSP,2013-03-28 17:55:00,
2013-03-28 14:00:00,49.7,28.5,30.24,NE,45,6.5,7.8,44,0.00,RMK 68.2/35.0,,0.00,WUHU21623XXSP,2013-03-28 18:00:00,
2013-03-28 14:05:00,49.7,28.5,30.25,NW,315,8.5,8.5,44,0.00,RMK 68.2/35.0,,0.00,WUHU21623XXSP,2013-03-28 18:05:00,
2013-03-28 14:10:00,50.0,28.8,30.24,NW,315,2.2,8.5,44,0.00,RMK 68.2/35.0,,0.00,WUHU21623XXSP,2013-03-28 18:10:00,
2013-03-28 14:15:00,50.2,29.0,30.24,North,0,0.0,8.5,44,0.00,RMK 68.2/35.0,,0.00,WUHU21623XXSP,2013-03-28 18:15:00,
2013-03-28 14:20:00,49.7,28.0,30.24,NNW,337,0.0,3.4,43,0.00,RMK 68.2/35.0,,0.00,WUHU21623XXSP,2013-03-28 18:20:00,
2013-03-28 14:25:00,50.0,28.8,30.24,North,0,7.2,7.2,44,0.00,RMK 68.2/35.0,,0.00,WUHU21623XXSP,2013-03-28 18:25:00,
2013-03-28 14:30:00,49.7,28.0,30.24,North,0,7.2,7.2,43,0.00,RMK 68.2/35.0,,0.00,WUHU21623XXSP,2013-03-28 18:30:00,
2013-03-28 14:35:00,49.5,27.8,30.24,North,0,7.2,7.2,43,0.00,RMK 68.2/35.0,,0.00,WUHU21623XXSP,2013-03-28 18:35:00,
2013-03-28 14:40:00,49.9,28.7,30.23,NW,315,0.0,7.2,44,0.00,RMK 68.2/35.0,,0.00,WUHU21623XXSP,2013-03-28 18:40:00,
2013-03-28 14:45:00,49.9,28.7,30.24,NNW,337,8.9,8.9,44,0.00,RMK 68.2/35.0,,0.00,WUHU21623XXSP,2013-03-28 18:45:00,
2013-03-28 14:50:00,49.7,28.0,30.23,NNE,22,2.2,8.9,43,0.00,RMK 68.2/35.0,,0.00,WUHU21623XXSP,2013-03-28 18:50:00,
2013-03-28 14:55:00,49.3,28.2,30.24,NNE,22,0.0,4.7,44,0.00,RMK 68.2/35.0,,0.00,WUHU21623XXSP,2013-03-28 18:55:00,
2013-03-28 15:00:00,49.3,28.2,30.24,NW,315,0.0,5.1,44,0.00,RMK 68.2/35.0,,0.00,WUHU21623XXSP,2013-03-28 19:00:00,
2013-03-28 15:05:00,49.7,28.5,30.24,NNE,22,0.0,5.1,44,0.00,RMK 68.2/35.0,,0.00,WUHU21623XXSP,2013-03-28 19:05:00,
2013-03-28 15:10:00,49.3,27.6,30.24,NNW,337,0.7,8.7,43,0.00,RMK 68.2/35.0,,0.00,WUHU21623XXSP,2013-03-28 19:10:00,
2013-03-28 15:16:00,49.1,27.4,30.23,NNW,337,0.7,8.7,43,0.00,RMK 68.2/35.0,,0.00,WUHU21623XXSP,2013-03-28 19:16:00,
2013-03-28 15:21:00,49.0,27.9,30.23,NNE,22,0.0,8.1,44,0.00,RMK 68.2/35.0,,0.00,WUHU21623XXSP,2013-03-28 19:21:00,
2013-03-28 15:26:00,48.8,27.7,30.23,North,0,8.9,8.9,44,0.00,RMK 68.2/35.0,,0.00,WUHU21623XXSP,2013-03-28 19:26:00,
2013-03-28 15:32:00,48.8,27.7,30.23,North,0,0.2,8.9,44,0.00,RMK 68.2/35.0,,0.00,WUHU21623XXSP,2013-03-28 19:32:00,
2013-03-28 15:37:00,49.1,28.0,30.23,NNW,337,5.1,9.2,44,0.00,RMK 68.2/35.0,,0.00,WUHU21623XXSP,2013-03-28 19:37:00,
2013-03-28 15:42:00,49.1,28.0,30.23,NW,315,0.0,5.1,44,0.00,RMK 68.2/35.0,,0.00,WUHU21623XXSP,2013-03-28 19:42:00,
2013-03-28 15:47:00,49.7,28.5,30.23,NNW,337,0.0,5.6,44,0.00,RMK 68.0/35.0,,0.00,WUHU21623XXSP,2013-03-28 19:47:00,
2013-03-28 15:52:00,49.7,28.5,30.23,WNW,292,0.0,5.6,44,0.00,RMK 68.0/35.0,,0.00,WUHU21623XXSP,2013-03-28 19:52:00,
2013-03-28 15:57:00,49.7,28.5,30.23,WNW,292,0.0,0.0,44,0.00,RMK 68.0/35.0,,0.00,WUHU21623XXSP,2013-03-28 19:57:00,
2013-03-28 16:02:00,49.3,27.6,30.23,North,0,6.0,6.3,43,0.00,RMK 68.0/35.0,,0.00,WUHU21623XXSP,2013-03-28 20:02:00,
2013-03-28 16:07:00,49.3,28.2,30.23,West,270,0.0,6.3,44,0.00,RMK 68.0/35.0,,0.00,WUHU21623XXSP,2013-03-28 20:07:00,
2013-03-28 16:12:00,48.8,27.7,30.22,West,270,0.0,0.0,44,0.00,RMK 68.0/35.0,,0.00,WUHU21623XXSP,2013-03-28 20:12:00,
2013-03-28 16:17:00,49.1,28.0,30.22,West,270,0.0,0.0,44,0.00,RMK 68.0/35.0,,0.00,WUHU21623XXSP,2013-03-28 20:17:00,
2013-03-28 16:22:00,49.1,28.6,30.23,NNW,337,6.5,6.5,45,0.00,RMK 68.0/35.0,,0.00,WUHU21623XXSP,2013-03-28 20:22:00,
2013-03-28 16:27:00,48.8,27.7,30.22,WNW,292,5.1,6.5,44,0.00,RMK 68.4/35.0,,0.00,WUHU21623XXSP,2013-03-28 20:27:00,
2013-03-28 16:33:00,48.4,27.9,30.23,NNE,22,0.0,6.5,45,0.00,RMK 68.5/35.0,,0.00,WUHU21623XXSP,2013-03-28 20:33:00,
2013-03-28 16:38:00,48.1,27.6,30.22,NNW,337,3.8,5.8,45,0.00,RMK 69.1/35.0,,0.00,WUHU21623XXSP,2013-03-28 20:38:00,
2013-03-28 16:43:00,47.9,27.5,30.22,NW,315,0.0,5.8,45,0.00,RMK 69.4/35.0,,0.00,WUHU21623XXSP,2013-03-28 20:43:00,
2013-03-28 16:48:00,47.7,27.3,30.22,NNW,337,6.3,6.3,45,0.00,RMK 69.8/35.0,,0.00,WUHU21623XXSP,2013-03-28 20:48:00,
2013-03-28 16:53:00,47.5,27.1,30.22,North,0,5.1,6.3,45,0.00,RMK 70.5/35.0,,0.00,WUHU21623XXSP,2013-03-28 20:53:00,
2013-03-28 16:58:00,47.5,27.1,30.21,NNW,337,0.0,5.1,45,0.00,RMK 70.7/35.0,,0.00,WUHU21623XXSP,2013-03-28 20:58:00,
2013-03-28 17:03:00,47.5,27.1,30.22,NNW,337,0.0,0.0,45,0.00,RMK 71.1/35.0,,0.00,WUHU21623XXSP,2013-03-28 21:03:00,
2013-03-28 17:08:00,47.3,27.5,30.21,NW,315,0.0,3.4,46,0.00,RMK 71.2/35.0,,0.00,WUHU21623XXSP,2013-03-28 21:08:00,
2013-03-28 17:13:00,47.3,27.5,30.21,NNW,337,0.0,3.4,46,0.00,RMK 71.6/35.0,,0.00,WUHU21623XXSP,2013-03-28 21:13:00,
2013-03-28 17:18:00,47.3,27.5,30.22,NNW,337,3.1,3.1,46,0.00,RMK 71.6/35.0,,0.00,WUHU21623XXSP,2013-03-28 21:18:00,
2013-03-28 17:23:00,47.7,27.8,30.21,NNE,22,0.0,3.1,46,0.00,RMK 71.8/35.0,,0.00,WUHU21623XXSP,2013-03-28 21:23:00,
2013-03-28 17:28:00,47.9,28.0,30.21,NNE,22,0.0,3.1,46,0.00,RMK 72.0/35.0,,0.00,WUHU21623XXSP,2013-03-28 21:28:00,
2013-03-28 17:33:00,47.9,28.5,30.21,NNE,22,0.0,0.0,47,0.00,RMK 72.0/35.0,,0.00,WUHU21623XXSP,2013-03-28 21:33:00,
2013-03-28 17:38:00,47.9,28.0,30.21,NW,315,5.1,5.1,46,0.00,RMK 72.0/34.0,,0.00,WUHU21623XXSP,2013-03-28 21:38:00,
2013-03-28 17:43:00,47.7,27.8,30.21,NNW,337,0.0,5.1,46,0.00,RMK 72.0/34.0,,0.00,WUHU21623XXSP,2013-03-28 21:43:00,
2013-03-28 17:48:00,47.7,28.4,30.21,NNE,22,3.6,3.6,47,0.00,RMK 72.0/35.0,,0.00,WUHU21623XXSP,2013-03-28 21:48:00,
2013-03-28 17:53:00,47.5,27.6,30.21,NNW,337,0.0,7.4,46,0.00,RMK 72.1/35.0,,0.00,WUHU21623XXSP,2013-03-28 21:53:00,
2013-03-28 17:58:00,47.5,27.6,30.22,NW,315,0.0,7.4,46,0.00,RMK 72.1/35.0,,0.00,WUHU21623XXSP,2013-03-28 21:58:00,
2013-03-28 18:03:00,47.5,27.6,30.21,North,0,0.0,0.0,46,0.00,RMK 72.1/35.0,,0.00,WUHU21623XXSP,2013-03-28 22:03:00,
2013-03-28 18:08:00,47.5,27.6,30.21,NNW,337,3.6,5.4,46,0.00,RMK 72.3/35.0,,0.00,WUHU21623XXSP,2013-03-28 22:08:00,
2013-03-28 18:13:00,47.7,27.8,30.21,NNW,337,0.0,9.2,46,0.00,RMK 72.3/35.0,,0.00,WUHU21623XXSP,2013-03-28 22:13:00,
2013-03-28 18:18:00,47.5,27.1,30.21,NNE,22,6.3,9.2,45,0.00,RMK 72.3/35.0,,0.00,WUHU21623XXSP,2013-03-28 22:18:00,
2013-03-28 18:23:00,47.3,26.9,30.22,North,0,4.3,7.2,45,0.00,RMK 72.3/35.0,,0.00,WUHU21623XXSP,2013-03-28 22:23:00,
2013-03-28 18:28:00,47.2,27.4,30.22,NNW,337,6.0,6.0,46,0.00,RMK 72.1/35.0,,0.00,WUHU21623XXSP,2013-03-28 22:28:00,
2013-03-28 18:33:00,46.8,27.0,30.22,NNE,22,0.0,6.0,46,0.00,RMK 72.3/35.0,,0.00,WUHU21623XXSP,2013-03-28 22:33:00,
2013-03-28 18:38:00,46.6,26.8,30.22,NNW,337,5.6,6.0,46,0.00,RMK 72.3/35.0,,0.00,WUHU21623XXSP,2013-03-28 22:38:00,
2013-03-28 18:43:00,46.4,26.6,30.22,North,0,0.0,5.6,46,0.00,RMK 72.1/35.0,,0.00,WUHU21623XXSP,2013-03-28 22:43:00,
2013-03-28 18:48:00,46.4,27.2,30.22,NNE,22,0.0,0.0,47,0.00,RMK 72.1/35.0,,0.00,WUHU21623XXSP,2013-03-28 22:48:00,
2013-03-28 18:53:00,46.4,27.2,30.22,North,0,4.3,4.3,47,0.00,RMK 72.1/35.0,,0.00,WUHU21623XXSP,2013-03-28 22:53:00,
2013-03-28 18:58:00,46.4,27.2,30.22,North,0,0.0,4.3,47,0.00,RMK 72.1/35.0,,0.00,WUHU21623XXSP,2013-03-28 22:58:00,
2013-03-28 19:03:00,46.4,27.2,30.22,NNW,337,6.0,6.0,47,0.00,RMK 72.1/35.0,,0.00,WUHU21623XXSP,2013-03-28 23:03:00,
2013-03-28 19:08:00,46.4,27.2,30.22,WNW,292,0.0,6.0,47,0.00,RMK 72.3/35.0,,0.00,WUHU21623XXSP,2013-03-28 23:08:00,
2013-03-28 19:13:00,46.3,27.1,30.23,WNW,292,0.0,3.8,47,0.00,RMK 72.3/36.0,,0.00,WUHU21623XXSP,2013-03-28 23:13:00,
2013-03-28 19:18:00,46.4,27.2,30.23,North,0,0.0,0.0,47,0.00,RMK 72.3/36.0,,0.00,WUHU21623XXSP,2013-03-28 23:18:00,
2013-03-28 19:23:00,46.3,27.1,30.22,West,270,0.0,0.0,47,0.00,RMK 72.3/35.0,,0.00,WUHU21623XXSP,2013-03-28 23:23:00,
2013-03-28 19:28:00,46.1,26.9,30.23,NNW,337,0.0,0.0,47,0.00,RMK 72.3/35.0,,0.00,WUHU21623XXSP,2013-03-28 23:28:00,
2013-03-28 19:33:00,46.1,26.9,30.23,NW,315,0.0,0.0,47,0.00,RMK 72.3/36.0,,0.00,WUHU21623XXSP,2013-03-28 23:33:00,
2013-03-28 19:38:00,45.7,26.5,30.23,NNW,337,0.0,0.0,47,0.00,RMK 72.3/36.0,,0.00,WUHU21623XXSP,2013-03-28 23:38:00,
2013-03-28 19:43:00,45.7,26.5,30.22,North,0,0.0,0.0,47,0.00,RMK 72.3/37.0,,0.00,WUHU21623XXSP,2013-03-28 23:43:00,
2013-03-28 19:48:00,45.7,26.5,30.23,North,0,0.0,0.0,47,0.00,RMK 72.3/37.0,,0.00,WUHU21623XXSP,2013-03-28 23:48:00,
2013-03-28 19:53:00,45.5,26.3,30.23,North,0,0.0,0.0,47,0.00,RMK 72.3/37.0,,0.00,WUHU21623XXSP,2013-03-28 23:53:00,
2013-03-28 19:58:00,45.5,26.3,30.23,North,0,0.0,0.0,47,0.00,RMK 72.3/37.0,,0.00,WUHU21623XXSP,2013-03-28 23:58:00,
2013-03-28 20:03:00,45.5,26.9,30.23,NNW,337,0.0,0.0,48,0.00,RMK 72.3/37.0,,0.00,WUHU21623XXSP,2013-03-29 00:03:00,
2013-03-28 20:08:00,45.2,26.6,30.23,North,0,0.0,0.0,48,0.00,RMK 72.1/37.0,,0.00,WUHU21623XXSP,2013-03-29 00:08:00,
2013-03-28 20:13:00,45.2,26.6,30.23,North,0,0.0,0.0,48,0.00,RMK 72.1/37.0,,0.00,WUHU21623XXSP,2013-03-29 00:13:00,
2013-03-28 20:18:00,45.2,26.6,30.23,NNW,337,0.0,0.0,48,0.00,RMK 72.1/37.0,,0.00,WUHU21623XXSP,2013-03-29 00:18:00,
2013-03-28 20:23:00,45.0,26.4,30.23,NNW,337,0.0,0.0,48,0.00,RMK 72.1/37.0,,0.00,WUHU21623XXSP,2013-03-29 00:23:00,
2013-03-28 20:28:00,45.0,26.4,30.23,North,0,0.0,0.0,48,0.00,RMK 72.1/37.0,,0.00,WUHU21623XXSP,2013-03-29 00:28:00,
2013-03-28 20:33:00,44.8,26.2,30.23,North,0,0.0,0.0,48,0.00,RMK 72.1/37.0,,0.00,WUHU21623XXSP,2013-03-29 00:33:00,
2013-03-28 20:38:00,44.6,26.0,30.24,North,0,0.0,0.0,48,0.00,RMK 72.1/37.0,,0.00,WUHU21623XXSP,2013-03-29 00:38:00,
2013-03-28 20:43:00,44.5,25.9,30.24,North,0,0.0,0.0,48,0.00,RMK 72.0/37.0,,0.00,WUHU21623XXSP,2013-03-29 00:43:00,
2013-03-28 20:48:00,44.5,26.5,30.24,North,0,0.0,0.0,49,0.00,RMK 72.0/37.0,,0.00,WUHU21623XXSP,2013-03-29 00:48:00,
2013-03-28 20:53:00,44.1,26.1,30.24,North,0,0.0,0.0,49,0.00,RMK 72.0/38.0,,0.00,WUHU21623XXSP,2013-03-29 00:53:00,
2013-03-28 20:58:00,43.9,26.4,30.24,North,0,0.0,0.0,50,0.00,RMK 72.0/38.0,,0.00,WUHU21623XXSP,2013-03-29 00:58:00,
2013-03-28 21:03:00,43.4,25.9,30.24,North,0,0.0,0.0,50,0.00,RMK 72.0/38.0,,0.00,WUHU21623XXSP,2013-03-29 01:03:00,
2013-03-28 21:08:00,42.8,25.4,30.24,North,0,0.0,0.0,50,0.00,RMK 72.0/38.0,,0.00,WUHU21623XXSP,2013-03-29 01:08:00,
2013-03-28 21:13:00,42.7,25.8,30.23,North,0,0.0,0.0,51,0.00,RMK 72.0/38.0,,0.00,WUHU21623XXSP,2013-03-29 01:13:00,
2013-03-28 21:18:00,42.1,25.2,30.24,North,0,0.0,0.0,51,0.00,RMK 72.0/38.0,,0.00,WUHU21623XXSP,2013-03-29 01:18:00,
2013-03-28 21:23:00,41.9,25.5,30.24,North,0,0.0,0.0,52,0.00,RMK 72.0/38.0,,0.00,WUHU21623XXSP,2013-03-29 01:23:00,
2013-03-28 21:28:00,41.6,25.3,30.24,North,0,0.0,0.0,52,0.00,RMK 72.0/38.0,,0.00,WUHU21623XXSP,2013-03-29 01:28:00,
2013-03-28 21:33:00,41.2,25.3,30.24,North,0,0.0,0.0,53,0.00,RMK 72.0/38.0,,0.00,WUHU21623XXSP,2013-03-29 01:33:00,
2013-03-28 21:38:00,41.0,25.6,30.25,North,0,0.0,0.0,54,0.00,RMK 72.0/38.0,,0.00,WUHU21623XXSP,2013-03-29 01:38:00,
2013-03-28 21:43:00,40.7,25.3,30.24,North,0,0.0,0.0,54,0.00,RMK 72.0/38.0,,0.00,WUHU21623XXSP,2013-03-29 01:43:00,
2013-03-28 21:48:00,40.5,25.6,30.25,North,0,0.0,0.0,55,0.00,RMK 72.0/38.0,,0.00,WUHU21623XXSP,2013-03-29 01:48:00,
2013-03-28 21:53:00,40.3,25.4,30.25,North,0,0.0,0.0,55,0.00,RMK 72.0/38.0,,0.00,WUHU21623XXSP,2013-03-29 01:53:00,
2013-03-28 21:58:00,40.0,25.6,30.25,North,0,0.0,0.0,56,0.00,RMK 72.0/38.0,,0.00,WUHU21623XXSP,2013-03-29 01:58:00,
2013-03-28 22:03:00,39.4,25.0,30.24,North,0,0.0,0.0,56,0.00,RMK 71.8/38.0,,0.00,WUHU21623XXSP,2013-03-29 02:03:00,
2013-03-28 22:08:00,39.1,24.7,30.25,North,0,0.0,0.0,56,0.00,RMK 71.8/38.0,,0.00,WUHU21623XXSP,2013-03-29 02:08:00,
2013-03-28 22:13:00,38.9,25.0,30.25,NNW,337,0.0,0.0,57,0.00,RMK 71.8/38.0,,0.00,WUHU21623XXSP,2013-03-29 02:13:00,
2013-03-28 22:18:00,38.5,25.0,30.25,NNW,337,0.0,0.0,58,0.00,RMK 71.8/38.0,,0.00,WUHU21623XXSP,2013-03-29 02:18:00,
2013-03-28 22:23:00,38.5,25.0,30.25,NNW,337,0.0,0.0,58,0.00,RMK 71.8/38.0,,0.00,WUHU21623XXSP,2013-03-29 02:23:00,
2013-03-28 22:28:00,38.5,25.0,30.25,NNW,337,0.0,0.0,58,0.00,RMK 71.8/38.0,,0.00,WUHU21623XXSP,2013-03-29 02:28:00,
2013-03-28 22:33:00,38.5,25.0,30.26,North,0,0.0,0.0,58,0.00,RMK 71.6/38.0,,0.00,WUHU21623XXSP,2013-03-29 02:33:00,
2013-03-28 22:38:00,38.5,25.0,30.25,NW,315,0.0,0.0,58,0.00,RMK 71.6/38.0,,0.00,WUHU21623XXSP,2013-03-29 02:38:00,
2013-03-28 22:43:00,38.5,25.0,30.25,NW,315,0.0,0.0,58,0.00,RMK 71.6/38.0,,0.00,WUHU21623XXSP,2013-03-29 02:43:00,
2013-03-28 22:48:00,38.3,25.3,30.26,NNW,337,0.0,0.0,59,0.00,RMK 71.6/38.0,,0.00,WUHU21623XXSP,2013-03-29 02:48:00,
2013-03-28 22:53:00,38.3,25.3,30.26,NNW,337,0.0,0.0,59,0.00,RMK 71.6/38.0,,0.00,WUHU21623XXSP,2013-03-29 02:53:00,
2013-03-28 22:58:00,38.2,25.2,30.26,NNW,337,0.0,0.0,59,0.00,RMK 71.6/37.0,,0.00,WUHU21623XXSP,2013-03-29 02:58:00,
2013-03-28 23:03:00,38.0,25.0,30.26,NNW,337,0.0,0.0,59,0.00,RMK 71.6/37.0,,0.00,WUHU21623XXSP,2013-03-29 03:03:00,
2013-03-28 23:08:00,37.8,24.8,30.26,NNW,337,0.0,0.0,59,0.00,RMK 71.6/37.0,,0.00,WUHU21623XXSP,2013-03-29 03:08:00,
2013-03-28 23:13:00,37.4,24.4,30.25,NNW,337,0.0,0.0,59,0.00,RMK 71.6/37.0,,0.00,WUHU21623XXSP,2013-03-29 03:13:00,
2013-03-28 23:18:00,37.4,24.8,30.26,NNW,337,0.0,0.0,60,0.00,RMK 71.4/37.0,,0.00,WUHU21623XXSP,2013-03-29 03:18:00,
2013-03-28 23:23:00,37.4,24.8,30.26,NNW,337,0.0,0.0,60,0.00,RMK 71.4/37.0,,0.00,WUHU21623XXSP,2013-03-29 03:23:00,
2013-03-28 23:28:00,37.4,24.8,30.26,NW,315,0.0,0.0,60,0.00,RMK 71.4/37.0,,0.00,WUHU21623XXSP,2013-03-29 03:28:00,
2013-03-28 23:33:00,37.4,25.2,30.26,NW,315,0.0,0.0,61,0.00,RMK 71.4/36.0,,0.00,WUHU21623XXSP,2013-03-29 03:33:00,
2013-03-28 23:38:00,37.4,25.2,30.26,NW,315,0.0,0.0,61,0.00,RMK 71.2/36.0,,0.00,WUHU21623XXSP,2013-03-29 03:38:00,
2013-03-28 23:43:00,37.3,25.1,30.26,NNW,337,0.0,0.0,61,0.00,RMK 71.2/36.0,,0.00,WUHU21623XXSP,2013-03-29 03:43:00,
2013-03-28 23:48:00,37.3,25.1,30.26,NNW,337,0.0,0.0,61,0.00,RMK 71.2/36.0,,0.00,WUHU21623XXSP,2013-03-29 03:48:00,
2013-03-28 23:53:00,37.3,25.1,30.26,NW,315,0.0,0.0,61,0.00,RMK 71.2/36.0,,0.00,WUHU21623XXSP,2013-03-29 03:53:00,
2013-03-28 23:58:00,37.3,25.1,30.26,NW,315,0.0,0.0,61,0.00,RMK 71.2/36.0,,0.00,WUHU21623XXSP,2013-03-29 03:58:00,